Weather History for KPRB - November, 2012

Change the Weather History Date:

Saturday, November 10, 2012

  Actual Average Record
Temperature  
Mean Temperature 44 °F 54 °F  
Max Temperature 60 °F 69 °F 89 °F (1956)
Min Temperature 27 °F 39 °F 27 °F (1948)
Degree Days  
Heating Degree Days 21 11  
Month to date heating degree days 75 95  
Since 1 July heating degree days 182 265  
Cooling Degree Days 0 0  
Month to date cooling degree days 3 0  
Year to date cooling degree days 1147 926  
Moisture  
Dew Point 30 °F    
Average Humidity 62    
Maximum Humidity 92    
Minimum Humidity 31    
Precipitation  
Precipitation 0.00 in 0.04 in 1.04 in (1985)
Month to date precipitation T 0.34  
Year to date precipitation 6.01 10.08  
Since 1 July precipitation 0.14 1.29  
Sea Level Pressure  
Sea Level Pressure 30.11 in    
Wind  
Wind Speed 5 mph (North)    
Max Wind Speed 18 mph    
Max Gust Speed 24 mph    
Visibility 10 miles    
Events      
T = Trace of Precipitation, MM = Missing Value Source: NWS Daily Summary

Daily Weather History Graph

Daily Weather History Graph

Search for Another Location

Airport or City:

Trip Planner

Search our weather history database for the weather conditions in past years. The results will help you decide how hot, cold, wet, or windy it might be!

Date:

Astronomy

Nov. 10, 2012 Rise Set
Actual Time 6:33 AM PST 4:58 PM PST
Civil Twilight 6:06 AM PST 5:25 PM PST
Nautical Twilight 5:36 AM PST 5:56 PM PST
Astronomical Twilight 5:06 AM PST 6:26 PM PST
Moon 2:51 AM PST (11/10) 2:43 PM PST (11/10)
Length of Visible Light 11h 18m
Length of Day
10h 24m
Waning Crescent, 13% of the Moon is Illuminated
Nov 10
Waning Crescent
Nov 13
New
Nov 20
First Quarter
Nov 28
Full
Dec 6
Last Quarter

Hourly Weather History & Observations

Time (PST) Temp. Windchill Dew Point Humidity Pressure Visibility Wind Dir Wind Speed Gust Speed Precip Events Conditions
12:53 AM 35.1 °F - 30.0 °F 82% 30.02 in 10.0 mi Calm Calm - N/A   Mostly Cloudy
1:53 AM 32.0 °F 28.7 °F 28.0 °F 85% 30.02 in 10.0 mi East 3.5 mph - N/A   Partly Cloudy
2:53 AM 32.0 °F - 28.0 °F 85% 30.03 in 10.0 mi Calm Calm - N/A   Clear
3:53 AM 30.0 °F 26.5 °F 28.0 °F 92% 30.04 in 10.0 mi SE 3.5 mph - N/A   Clear
4:53 AM 28.0 °F - 26.1 °F 92% 30.06 in 10.0 mi Calm Calm - N/A   Clear
5:53 AM 28.0 °F - 26.1 °F 92% 30.08 in 10.0 mi Calm Calm - N/A   Clear
6:53 AM 27.0 °F - 25.0 °F 92% 30.10 in 10.0 mi Calm Calm - N/A   Clear
7:53 AM 34.0 °F - 30.0 °F 85% 30.12 in 10.0 mi Calm Calm - N/A   Clear
8:53 AM 41.0 °F - 33.1 °F 73% 30.13 in 10.0 mi Calm Calm - N/A   Clear
9:53 AM 46.9 °F - 34.0 °F 61% 30.14 in 10.0 mi Calm Calm - N/A   Clear
10:53 AM 52.0 °F - 34.0 °F 50% 30.14 in 10.0 mi Calm Calm - N/A   Clear
11:53 AM 55.0 °F - 35.1 °F 47% 30.12 in 10.0 mi WNW 5.8 mph - N/A   Clear
12:53 PM 57.0 °F - 33.1 °F 40% 30.10 in 10.0 mi WNW 9.2 mph - N/A   Partly Cloudy
1:53 PM 59.0 °F - 28.9 °F 32% 30.09 in 10.0 mi NNW 15.0 mph 20.7 mph N/A   Clear
2:53 PM 59.0 °F - 28.0 °F 31% 30.09 in 10.0 mi NNW 13.8 mph - N/A   Clear
3:53 PM 57.9 °F - 28.0 °F 32% 30.09 in 10.0 mi NNW 15.0 mph - N/A   Clear
4:53 PM 55.0 °F - 28.9 °F 37% 30.11 in 10.0 mi NNW 10.4 mph - N/A   Clear
5:53 PM 52.0 °F - 30.9 °F 45% 30.14 in 10.0 mi North 8.1 mph - N/A   Mostly Cloudy
6:53 PM 48.9 °F - 32.0 °F 52% 30.17 in 10.0 mi North 3.5 mph - N/A   Clear
9:53 PM 45.0 °F 40.6 °F 37.0 °F 74% 30.22 in 10.0 mi NW 8.1 mph - N/A   Clear
10:53 PM 42.1 °F 40.2 °F 34.0 °F 73% 30.23 in 10.0 mi ENE 3.5 mph - N/A   Clear
11:53 PM 37.0 °F 34.5 °F 30.0 °F 76% 30.25 in 10.0 mi NE 3.5 mph - N/A   Clear